Zurück zum Katalog

THOR ABLESTAR R/B

AktivPO
NORAD 1428·ROCKET BODY·🇺🇸 United States

Gestartet Jun 24, 1965 von Vandenberg Space Force Base

Loading…

Nächste Überflüge (nächste 24 Stunden)

TLE

AktuellSource: Space-Track

Epoche: Sep 14, 2026, 12:53 UTC

1 01428U 65048B   26257.53684492  .00000029  00000-0  29905-4 0  9991
2 01428  89.8693 283.8755 0054949 281.0365 234.0449 13.52692253 20707

Verfolge THOR ABLESTAR R/B in Echtzeit mit AllMySat

Download on the App Store